Weather History for Lambertville, MI

Change the Weather History Date:

Tuesday, October 22, 2013

  Actual Average (KTOL) Record (KTOL)
Temperature  
Mean Temperature 42 °F 50 °F  
Max Temperature 51 °F 61 °F 83 °F (1920)
Min Temperature 33 °F 40 °F 22 °F (1976)
Degree Days  
Heating Degree Days 23 15  
Month to date heating degree days 256  
Since 1 July heating degree days 380  
Cooling Degree Days 0 0  
Month to date cooling degree days 8  
Year to date cooling degree days 792  
Moisture  
Dew Point 31 °F    
Average Humidity 67    
Maximum Humidity 87    
Minimum Humidity 47    
Precipitation  
Precipitation 0.00 in 0.09 in 1.17 in (1965)
Month to date precipitation 1.87  
Year to date precipitation 27.97  
Snow  
Snow 0.00 in 0.00 in - ()
Month to date snowfall 0.1  
Since 1 July snowfall 0.1  
Since 1 September snowfall 0.1  
Snow Depth -    
Sea Level Pressure  
Sea Level Pressure 29.92 in    
Wind  
Wind Speed 8 mph (WSW)    
Max Wind Speed 14 mph    
Max Gust Speed 22 mph    
Visibility 10 miles    
Events      
T = Trace of Precipitation, MM = Missing Value Source: NWS Daily Summary

Daily Weather History Graph

Daily Weather History Graph

Search for Another Location

Airport:

Trip Planner

Search our weather history database for the weather conditions in past years. The results will help you decide how hot, cold, wet, or windy it might be!

Date:

Astronomy

Oct. 22, 2013 Rise Set
Actual Time 7:55 AM EDT 6:42 PM EDT
Civil Twilight 7:26 AM EDT 7:10 PM EDT
Nautical Twilight 6:54 AM EDT 7:43 PM EDT
Astronomical Twilight 6:22 AM EDT 8:15 PM EDT
Moon 9:19 PM EDT (10/22) 11:24 AM EDT (10/22)
Length of Visible Light 11h 43m
Length of Day
10h 47m
Waning Gibbous, 87% of the Moon is Illuminated
Oct 22
Waning Gibbous
Oct 26
Last Quarter
Nov 3
New
Nov 10
First Quarter
Nov 17
Full

Hourly Weather History & Observations

Time (EDT) Temp. Windchill Dew Point Humidity Pressure Visibility Wind Dir Wind Speed Gust Speed Precip Events Conditions
12:15 AM 41.0 °F 35.8 °F 33.8 °F 76% 29.89 in 10.0 mi WSW 8.1 mph - N/A   Clear
12:35 AM 41.0 °F 35.8 °F 33.8 °F 76% 29.89 in 10.0 mi WSW 8.1 mph - N/A   Clear
12:55 AM 41.0 °F 35.2 °F 33.8 °F 76% 29.89 in 10.0 mi WSW 9.2 mph - N/A   Clear
1:15 AM 41.0 °F 35.2 °F 33.8 °F 76% 29.89 in 10.0 mi WSW 9.2 mph - N/A   Clear
1:35 AM 41.0 °F 35.2 °F 32.0 °F 70% 29.90 in 10.0 mi West 9.2 mph 17.3 mph N/A   Clear
1:55 AM 41.0 °F 35.8 °F 32.0 °F 70% 29.90 in 10.0 mi West 8.1 mph - N/A   Clear
2:15 AM 39.2 °F 35.0 °F 32.0 °F 75% 29.91 in 10.0 mi WSW 5.8 mph - N/A   Clear
2:35 AM 37.4 °F 32.8 °F 30.2 °F 75% 29.91 in 10.0 mi WSW 5.8 mph - N/A   Clear
2:55 AM 37.4 °F 32.8 °F 30.2 °F 75% 29.91 in 10.0 mi WSW 5.8 mph - N/A   Clear
3:15 AM 37.4 °F 32.8 °F 30.2 °F 75% 29.91 in 10.0 mi WSW 5.8 mph - N/A   Clear
3:35 AM 37.4 °F 32.8 °F 30.2 °F 75% 29.91 in 10.0 mi WSW 5.8 mph - N/A   Scattered Clouds
3:55 AM 37.4 °F 32.8 °F 30.2 °F 75% 29.92 in 10.0 mi WSW 5.8 mph - N/A   Mostly Cloudy
4:15 AM 37.4 °F 32.8 °F 30.2 °F 75% 29.92 in 10.0 mi WSW 5.8 mph - N/A   Scattered Clouds
4:35 AM 35.6 °F 30.7 °F 30.2 °F 81% 29.92 in 10.0 mi SW 5.8 mph - N/A   Clear
4:55 AM 35.6 °F 29.9 °F 30.2 °F 81% 29.92 in 10.0 mi SW 6.9 mph - N/A   Clear
5:15 AM 35.6 °F 29.9 °F 30.2 °F 81% 29.93 in 10.0 mi SW 6.9 mph - N/A   Clear
5:35 AM 35.6 °F 29.9 °F 30.2 °F 81% 29.93 in 10.0 mi SW 6.9 mph - N/A   Clear
5:55 AM 35.6 °F 29.9 °F 30.2 °F 81% 29.93 in 10.0 mi WSW 6.9 mph - N/A   Clear
6:15 AM 35.6 °F 29.9 °F 30.2 °F 81% 29.93 in 10.0 mi WSW 6.9 mph - N/A   Clear
6:35 AM 33.8 °F 27.7 °F 30.2 °F 87% 29.93 in 10.0 mi SW 6.9 mph - N/A   Clear
6:55 AM 33.8 °F 28.6 °F 30.2 °F 87% 29.94 in 10.0 mi SW 5.8 mph - N/A   Clear
7:15 AM 33.8 °F 27.7 °F 30.2 °F 87% 29.94 in 10.0 mi SW 6.9 mph - N/A   Clear
7:35 AM 33.8 °F 27.0 °F 30.2 °F 87% 29.94 in 10.0 mi WSW 8.1 mph - N/A   Clear
7:55 AM 33.8 °F 27.7 °F 28.4 °F 81% 29.94 in 10.0 mi SW 6.9 mph - N/A   Clear
8:15 AM 33.8 °F 27.0 °F 28.4 °F 81% 29.95 in 10.0 mi SW 8.1 mph - N/A   Clear
8:35 AM 33.8 °F 27.0 °F 28.4 °F 81% 29.95 in 10.0 mi SW 8.1 mph - N/A   Clear
8:55 AM 35.6 °F 30.7 °F 28.4 °F 75% 29.95 in 10.0 mi SW 5.8 mph - N/A   Clear
9:15 AM 35.6 °F 28.6 °F 28.4 °F 75% 29.95 in 10.0 mi SW 9.2 mph - N/A   Clear
9:35 AM 37.4 °F 30.3 °F 30.2 °F 75% 29.96 in 10.0 mi WSW 10.4 mph - N/A   Clear
9:55 AM 39.2 °F 33.0 °F 30.2 °F 70% 29.96 in 10.0 mi WSW 9.2 mph - N/A   Clear
10:15 AM 41.0 °F 36.4 °F 30.2 °F 65% 29.96 in 10.0 mi WSW 6.9 mph - N/A   Clear
10:35 AM 41.0 °F 35.8 °F 32.0 °F 70% 29.96 in 10.0 mi West 8.1 mph - N/A   Clear
10:55 AM 42.8 °F 37.5 °F 32.0 °F 66% 29.96 in 10.0 mi West 9.2 mph 16.1 mph N/A   Clear
11:15 AM 44.6 °F 39.2 °F 32.0 °F 61% 29.95 in 10.0 mi West 10.4 mph 17.3 mph N/A   Clear
11:35 AM 44.6 °F 38.4 °F 32.0 °F 61% 29.95 in 10.0 mi WSW 12.7 mph 17.3 mph N/A   Clear
11:55 AM 44.6 °F 40.2 °F 32.0 °F 61% 29.95 in 10.0 mi WSW 8.1 mph 18.4 mph N/A   Clear
12:15 PM 46.4 °F 41.1 °F 32.0 °F 57% 29.95 in 10.0 mi West 11.5 mph 16.1 mph N/A   Scattered Clouds
12:35 PM 46.4 °F 40.4 °F 32.0 °F 57% 29.95 in 10.0 mi WSW 13.8 mph 18.4 mph N/A   Scattered Clouds
12:55 PM 46.4 °F 41.1 °F 32.0 °F 57% 29.94 in 10.0 mi West 11.5 mph 21.9 mph N/A   Scattered Clouds
1:15 PM 48.2 °F - 32.0 °F 54% 29.93 in 10.0 mi West 8.1 mph 17.3 mph N/A   Scattered Clouds
1:35 PM 48.2 °F - 32.0 °F 54% 29.92 in 10.0 mi West 8.1 mph - N/A   Scattered Clouds
1:55 PM 48.2 °F - 32.0 °F 54% 29.92 in 10.0 mi WSW 8.1 mph 16.1 mph N/A   Scattered Clouds
2:15 PM 50.0 °F - 32.0 °F 50% 29.91 in 10.0 mi WSW 10.4 mph - N/A   Scattered Clouds
2:35 PM 50.0 °F - 32.0 °F 50% 29.90 in 10.0 mi WSW 6.9 mph - N/A   Scattered Clouds
2:55 PM 50.0 °F - 32.0 °F 50% 29.89 in 10.0 mi West 5.8 mph - N/A   Scattered Clouds
3:15 PM 51.8 °F - 32.0 °F 47% 29.89 in 10.0 mi WSW 10.4 mph 17.3 mph N/A   Scattered Clouds
3:35 PM 50.0 °F - 32.0 °F 50% 29.89 in 10.0 mi West 8.1 mph - N/A   Scattered Clouds
3:55 PM 50.0 °F - 30.2 °F 47% 29.89 in 10.0 mi West 6.9 mph - N/A   Clear
4:15 PM 50.0 °F - 30.2 °F 47% 29.89 in 10.0 mi West 10.4 mph - N/A   Clear
4:35 PM 50.0 °F - 30.2 °F 47% 29.89 in 10.0 mi WSW 6.9 mph - N/A   Scattered Clouds
4:55 PM 50.0 °F - 30.2 °F 47% 29.89 in 10.0 mi WSW 6.9 mph - N/A   Overcast
5:15 PM 50.0 °F - 30.2 °F 47% 29.89 in 10.0 mi West 5.8 mph - N/A   Overcast
5:35 PM 48.2 °F - 30.2 °F 50% 29.89 in 10.0 mi WSW 5.8 mph - N/A   Overcast
5:55 PM 48.2 °F - 30.2 °F 50% 29.89 in 10.0 mi WSW 4.6 mph - N/A   Overcast
6:15 PM 46.4 °F 44.3 °F 30.2 °F 53% 29.89 in 10.0 mi WSW 4.6 mph - N/A   Overcast
6:35 PM 46.4 °F 45.2 °F 30.2 °F 53% 29.89 in 10.0 mi WSW 3.5 mph - N/A   Overcast
6:55 PM 46.4 °F 45.2 °F 30.2 °F 53% 29.89 in 10.0 mi WSW 3.5 mph - N/A   Overcast
7:15 PM 46.4 °F - 32.0 °F 57% 29.88 in 10.0 mi Calm Calm - N/A   Overcast
7:35 PM 46.4 °F 43.5 °F 28.4 °F 50% 29.89 in 10.0 mi WSW 5.8 mph - N/A   Overcast
7:55 PM 46.4 °F 42.4 °F 28.4 °F 50% 29.89 in 10.0 mi SW 8.1 mph - N/A   Overcast
8:15 PM 44.6 °F 40.2 °F 28.4 °F 53% 29.90 in 10.0 mi WSW 8.1 mph - N/A   Overcast
8:35 PM 44.6 °F 39.7 °F 30.2 °F 57% 29.90 in 10.0 mi WSW 9.2 mph - N/A   Overcast
8:55 PM 42.8 °F 39.3 °F 30.2 °F 61% 29.90 in 10.0 mi SW 5.8 mph - N/A   Overcast
9:15 PM 42.8 °F 38.6 °F 32.0 °F 66% 29.91 in 10.0 mi SW 6.9 mph - N/A   Overcast
9:35 PM 41.0 °F 35.8 °F 32.0 °F 70% 29.91 in 10.0 mi WSW 8.1 mph - N/A   Overcast
9:55 PM 41.0 °F 36.4 °F 32.0 °F 70% 29.92 in 10.0 mi WSW 6.9 mph - N/A   Overcast
10:15 PM 41.0 °F 37.1 °F 32.0 °F 70% 29.92 in 10.0 mi WSW 5.8 mph - N/A   Overcast
10:35 PM 41.0 °F 36.4 °F 33.8 °F 76% 29.92 in 10.0 mi WSW 6.9 mph - N/A   Overcast
10:55 PM 39.2 °F 34.2 °F 33.8 °F 81% 29.92 in 10.0 mi WSW 6.9 mph - N/A   Overcast
11:15 PM 39.2 °F 35.0 °F 33.8 °F 81% 29.92 in 10.0 mi WSW 5.8 mph - N/A   Overcast
11:35 PM 39.2 °F 37.0 °F 33.8 °F 81% 29.91 in 10.0 mi WSW 3.5 mph - N/A   Overcast
11:55 PM 39.2 °F 37.0 °F 33.8 °F 81% 29.91 in 10.0 mi West 3.5 mph - N/A   Overcast